Weather History for Santee, CA

Change the Weather History Date:

Tuesday, January 22, 2013

  Actual Average Record
Temperature  
Mean Temperature 58 °F -  
Max Temperature 84 °F 69 °F 84 °F (2013)
Min Temperature 33 °F 41 °F 32 °F (1987)
Degree Days  
Heating Degree Days 6    
Growing Degree Days 8 (Base 50)    
Moisture  
Dew Point 26 °F    
Average Humidity 54    
Maximum Humidity 75    
Minimum Humidity 7    
Precipitation  
Precipitation 0.00 in - - ()
Sea Level Pressure  
Sea Level Pressure 30.09 in    
Wind  
Wind Speed 1 mph (NW)    
Max Wind Speed 6 mph    
Max Gust Speed -    
Visibility 10 miles    
Events      
Averages and records for this station are not official NWS values.
T = Trace of Precipitation, MM = Missing Value Source: NWS Daily Summary

Daily Weather History Graph

Daily Weather History Graph

Search for Another Location

Airport:

Trip Planner

Search our weather history database for the weather conditions in past years. The results will help you decide how hot, cold, wet, or windy it might be!

Date:

Astronomy

Jan. 22, 2013 Rise Set
Actual Time 6:48 AM PST 5:11 PM PST
Civil Twilight 6:21 AM PST 5:37 PM PST
Nautical Twilight 5:51 AM PST 6:07 PM PST
Astronomical Twilight 5:22 AM PST 6:37 PM PST
Moon 1:40 PM PST (1/22) 3:11 AM PST (1/22)
Length of Visible Light 11h 15m
Length of Day
10h 23m
Waxing Gibbous, 83% of the Moon is Illuminated
Jan 22
Waxing Gibbous
Jan 26
Full
Feb 3
Last Quarter
Feb 9
New
Feb 17
First Quarter

Hourly Weather History & Observations

Time (PST) Temp. Windchill Dew Point Humidity Pressure Visibility Wind Dir Wind Speed Gust Speed Precip Events Conditions
12:15 AM 39.2 °F - 24.8 °F 56% 30.09 in 10.0 mi Calm Calm - N/A   Clear
12:35 AM 39.2 °F 37.0 °F 24.8 °F 56% 30.09 in 10.0 mi NW 3.5 mph - N/A   Clear
12:55 AM 39.2 °F - 24.8 °F 56% 30.09 in 10.0 mi Calm Calm - N/A   Clear
1:15 AM 37.4 °F - 23.0 °F 56% 30.09 in 10.0 mi Calm Calm - N/A   Clear
1:35 AM 37.4 °F - 24.8 °F 60% 30.09 in 10.0 mi Calm Calm - N/A   Clear
1:55 AM 37.4 °F - 26.6 °F 65% 30.09 in 10.0 mi Calm Calm - N/A   Clear
2:15 AM 37.4 °F - 24.8 °F 60% 30.09 in 10.0 mi Calm Calm - N/A   Clear
2:35 AM 37.4 °F - 24.8 °F 60% 30.09 in 10.0 mi Calm Calm - N/A   Clear
2:55 AM 35.6 °F - 24.8 °F 65% 30.09 in 10.0 mi Calm Calm - N/A   Clear
3:15 AM 35.6 °F - 24.8 °F 65% 30.09 in 10.0 mi Calm Calm - N/A   Clear
3:35 AM 35.6 °F - 24.8 °F 65% 30.09 in 10.0 mi Calm Calm - N/A   Clear
3:55 AM 35.6 °F - 24.8 °F 65% 30.09 in 10.0 mi Calm Calm - N/A   Clear
4:15 AM 35.6 °F - 24.8 °F 65% 30.09 in 10.0 mi Calm Calm - N/A   Clear
4:35 AM 35.6 °F - 24.8 °F 65% 30.09 in 10.0 mi Calm Calm - N/A   Clear
4:55 AM 33.8 °F - 24.8 °F 70% 30.09 in 10.0 mi Calm Calm - N/A   Clear
5:15 AM 33.8 °F - 24.8 °F 70% 30.09 in 10.0 mi Calm Calm - N/A   Clear
6:47 AM 33.8 °F - 26.6 °F 75% 30.11 in 25.0 mi Calm Calm - N/A   Partly Cloudy
7:55 AM 37.4 °F - 28.4 °F 70% 30.11 in 25.0 mi Calm Calm - N/A   Partly Cloudy
8:47 AM 44.6 °F - 26.6 °F 49% 30.12 in 25.0 mi Calm Calm - N/A   Partly Cloudy
12:52 PM 82.4 °F - 10.4 °F 7% 30.02 in 25.0 mi Calm Calm - N/A   Partly Cloudy
1:47 PM 84.2 °F - 14.0 °F 7% 30.02 in 25.0 mi Variable 5.8 mph - N/A   Mostly Cloudy
8:15 PM 53.6 °F - 28.4 °F 38% 30.09 in 10.0 mi Calm Calm - N/A   Clear
8:55 PM 51.8 °F - 28.4 °F 41% 30.09 in 10.0 mi Calm Calm - N/A   Clear
9:15 PM 51.8 °F - 30.2 °F 44% 30.09 in 10.0 mi Calm Calm - N/A   Clear
9:55 PM 50.0 °F - 30.2 °F 47% 30.10 in 10.0 mi Calm Calm - N/A   Clear
10:15 PM 51.8 °F - 30.2 °F 44% 30.10 in 10.0 mi Calm Calm - N/A   Clear
10:35 PM 48.2 °F - 28.4 °F 46% 30.09 in 10.0 mi Calm Calm - N/A   Clear
10:55 PM 48.2 °F - 28.4 °F 46% 30.09 in 10.0 mi WNW 3.5 mph - N/A   Clear
11:15 PM 48.2 °F - 28.4 °F 46% 30.09 in 10.0 mi WNW 3.5 mph - N/A   Clear
11:35 PM 48.2 °F - 30.2 °F 50% 30.09 in 10.0 mi Calm Calm - N/A   Clear
11:55 PM 46.4 °F - 28.4 °F 50% 30.08 in 10.0 mi Calm Calm - N/A   Clear